Simultaneous Nadir Overpasses (SNOs) Predictions

Prediction of SNOs between NOAA-19 and TERRA Satellite Orbit:

Table of predicted SNOs for the next 14.0 days since TLE Epoch: 11/3/2016
Index Date (NOAA-19) Time (NOAA-19) Lat,Lon (NOAA-19) SZA (NOAA-19 ) Date (TERRA) Time (TERRA) Lat,Lon (TERRA) SZA (TERRA ) Distance(km) Time Diff (sec)
1 11/04/2016 12:04:45 -74.48,-172.64 89.66 11/04/2016 12:05:08 -74.47,-172.59 89.66 1.95 23
2 11/04/2016 12:55:48 74.29, -4.90 90.20 11/04/2016 12:54:36 74.34, -5.27 90.20 12.41 72
3 11/06/2016 17:38:49 74.48, -76.11 91.02 11/06/2016 17:38:50 74.49, -75.98 91.03 3.73 1
4 11/06/2016 18:29:35 -74.07, 92.29 89.32 11/06/2016 18:28:25 -74.11, 90.77 89.38 46.71 70
5 11/08/2016 22:21:52 74.77,-147.62 91.90 11/08/2016 22:23:03 74.68,-146.58 91.88 32.20 71
6 11/08/2016 23:12:40 -74.46, 20.56 88.36 11/08/2016 23:12:35 -74.46, 20.52 88.36 1.20 5
7 11/11/2016 03:55:39 -74.56, -50.43 87.66 11/11/2016 03:56:50 -74.54, -50.35 87.66 3.15 71
8 11/11/2016 04:46:44 74.46, 117.08 92.27 11/11/2016 04:46:17 74.46, 117.08 92.26 0.75 27
9 11/13/2016 09:29:42 74.53, 46.21 92.91 11/13/2016 09:30:32 74.53, 46.19 92.92 0.58 50
10 11/13/2016 10:20:35 -74.44,-146.28 87.15 11/13/2016 10:20:01 -74.47,-146.33 87.14 2.98 34
11 11/15/2016 15:03:34 -74.56, 142.73 86.50 11/15/2016 15:04:16 -74.53, 142.77 86.51 2.89 42
